Theta_e
307 308 309 309 309 308 307 306 307 307 307 307 307 306 307 306 306 307 305 303 304 302
308 309 308 309 310 308 308 307 307 307 306 307 307 306 306 306 305 305 306 305 304 303
309 309 309 309 309 308 308 307 306 306 306 307 307 306 306 306 306 304 304 304 302 302
308 309 309 309 309 308 308 307 306 306 306 306 306 306 306 306 304 304 303 304 301 300
309 308 308 308 308 308 307 307 307 306 305 306 306 306 306 305 305 304 303 302 301 300
308 308 307 307 308 308 307 307 307 306 306 305 306 306 306 306 305 305 304 303 301 300
306 308 308 308 307 307 307 307 306 306 306 306 306 306 305 305 305 305 305 304 303 301
306 308 308 307 307 307 307 306 306 306 306 305 305 305 305 305 305 305 305 303 301 302
304 305 306 306 306 306 305 305 306 305 305 304 304 294 299 303 304 304 303 302 300 299
303 303 304 305 305 304 304 305 304 304 304 304 304 298 298 297 305 304 304 303 300 297
301 302 302 303 303 304 304 303 304 303 304 304 304 297 297 295 304 304 303 303 301 300
301 300 298 300 301 303 303 303 303 303 303 303 302 296 296 297 301 298 299 301 301 301
299 301 299 300 300 298 301 301 298 295 302 298 303 296 296 298 300 296 295 294 296 290
296 297 300 300 296 295 297 293 293 293 294 299 300 299 296 296 299 298 295 295 293 294
Wind_Speed
9 7 7 8 8 6 5 5 7 7 8 8 8 6 6 5 4 7 7 9 6 5
9 10 8 8 10 7 7 7 7 7 9 10 8 8 7 5 6 5 5 7 8 6
12 9 10 9 10 10 9 9 8 7 9 10 9 8 7 6 6 6 4 5 6 6
11 9 10 10 10 10 10 10 9 8 8 9 10 8 7 6 6 7 7 6 6 6
9 10 10 9 11 11 11 10 11 9 8 9 9 10 9 8 7 8 8 7 6 6
9 10 10 10 10 11 12 11 10 10 10 10 10 10 10 9 9 8 8 8 8 7
10 10 10 10 10 11 12 12 11 11 10 9 10 10 9 9 9 8 7 6 7 7
10 10 10 10 10 10 11 12 12 12 11 10 9 8 11 10 9 9 8 7 7 8
10 10 10 10 11 11 10 10 11 12 12 12 8 11 13 11 10 10 9 8 7 6
10 10 10 9 10 10 11 10 11 11 11 12 11 16 16 14 9 10 10 9 7 6
10 10 9 9 10 9 9 11 10 11 12 11 10 17 17 17 10 9 9 10 9 10
10 9 9 10 10 9 9 9 9 9 11 12 10 17 18 15 10 7 9 9 9 10
12 12 12 11 10 6 7 9 6 7 11 11 11 16 20 17 8 9 7 6 8 13
9 11 11 10 6 7 7 6 6 8 7 9 12 11 20 21 10 10 8 8 7 7
Wind_Direction
161 164 160 160 150 146 147 146 157 160 144 145 145 137 137 126 122 134 136 128 102 111
165 164 162 164 148 149 144 146 163 161 146 150 144 143 152 145 142 131 135 134 131 124
175 166 160 164 155 154 152 149 156 161 157 150 148 146 149 146 149 133 135 132 132 136
178 171 162 168 160 159 155 156 158 164 164 157 152 157 150 151 161 151 150 150 151 156
172 168 164 170 165 161 163 165 161 163 168 168 165 163 165 162 176 172 174 169 162 170
172 171 173 172 170 165 162 167 163 164 175 176 173 175 176 176 178 185 190 178 173 179
182 181 178 174 178 169 168 167 171 174 177 183 179 179 177 177 180 185 192 190 188 180
184 185 181 174 181 178 176 175 177 175 178 179 186 185 178 179 187 187 194 190 194 205
179 180 183 180 177 178 181 181 179 182 181 180 187 187 186 181 183 190 193 198 199 192
180 185 186 179 178 180 185 180 188 187 185 187 190 183 188 187 192 188 198 197 191 194
182 188 182 185 189 186 186 187 190 190 190 193 194 185 188 188 197 200 201 198 197 201
190 185 176 190 191 193 185 189 192 193 188 194 197 187 189 182 198 198 205 207 201 205
191 195 192 195 191 182 191 197 183 185 194 192 199 190 192 188 192 200 206 208 218 209
191 207 201 196 181 182 189 177 187 193 201 196 200 194 196 195 194 205 202 207 211 222